Tracking 18840 objects as of 18-November-2017
HD Live streaming from Space Station
objects crossing your sky now

COSMOS 1801

Track COSMOS 1801 now!
10-day predictions
COSMOS 1801 is classified as:


NORAD ID: 17145
Int'l Code: 1986-092H
Perigee: 1,393.0 km
Apogee: 1,477.0 km
Inclination: 74.0 °
Period: 114.4 minutes
Semi major axis: 7806 km
RCS: 0.7115 m2 (medium)
Launch date: November 21, 1986
Source: Commonwealth of Independent States (former USSR) (CIS)
Launch site: PLESETSK MISSILE AND SPACE COMPLEX (PKMTR)
aabbcc
Your satellite tracking list
Your tracking list is empty




NASA's NSSDC Master Catalog

Two Line Element Set (TLE):
1 17145U 86092H   17321.36176525 -.00000031 +00000-0 -84598-4 0  9996
2 17145 074.0129 274.4961 0053796 107.8731 049.3211 12.58800992424074
Source of the keplerian elements: AFSPC